Weather Roundup
Issued by NWS Chicago, IL

Home | Current Version | Previous Version | Graphics & Text | Print | Product List | Glossary On
Versions: 1 2 3 4 5 6 7 8 9 10 11 12 13 14 15 16 17 18 19 20 21 22 23 24 25 26 27 28 29 30 31 32 33 34 35 36 37 38 39 40 41 42 43 44 45 46 47 48 49 50
000
NZUS59 KLOT 241409
HRRLOT

CHICAGO AREA WEATHER ROUNDUP
NATIONAL WEATHER SERVICE CHICAGO/ROMEOVILLE IL
900 AM CDT MON JUL 24 2017

NOTE: "FAIR" INDICATES FEW OR NO CLOUDS BELOW 12,000 FEET WITH NO
SIGNIFICANT WEATHER AND/OR OBSTRUCTIONS TO VISIBILITY.

* THESE STATIONS ARE NOT UNDER NWS QUALITY CONTROL. THEY ALSO MAY NOT
  REPORT WEATHER SUCH AS PRECIPITATION OR FOG.

ILZ005-006-012>014-019>023-241500-
NORTHEAST ILLINOIS

CITY           SKY/WX    TMP DP  RH WIND       PRES   REMARKS
OHARE          PTSUNNY   69  60  73 N14       30.01R
MIDWAY         PTSUNNY   70  60  70 N13       30.00R
AURORA         PTSUNNY   68  61  78 NE12      30.03R
LANSING*       CLOUDY    70  60  70 N14G21    29.99S
JOLIET*        CLOUDY    70  63  78 N8        30.01R
WAUKEGAN       CLOUDY    67  59  75 NE9G18    30.01R
DUPAGE AIRPORT PTSUNNY   68  62  81 N13       30.02R
WHEELING       CLOUDY    68  61  78 NE16G23   30.03R
MORRIS*        MOSUNNY   69  62  77 N3        30.00S
LEWIS AIRPORT* CLOUDY    68  59  74 NE10G17   30.01R
NORTHERLY ISL    N/A     69  60  73 N12         N/A
$$

WIZ051-052-058>065-066-070>072-241500-
SOUTHEAST WISCONSIN

CITY           SKY/WX    TMP DP  RH WIND       PRES   REMARKS
MILWAUKEE      PTSUNNY   68  56  65 N14G21    30.03R
KENOSHA*       CLOUDY    67  57  70 NE14      30.03R
RACINE*        CLOUDY    67  59  75 NE17      30.05R
WAUKESHA       CLOUDY    63  55  77 N10       30.05R
WEST BEND      CLOUDY    63  55  77 NE12G17   30.05S
$$

INZ001>003-010>013-019-020-241500-
NORTHWEST INDIANA

CITY           SKY/WX    TMP DP  RH WIND       PRES   REMARKS
GARY*          PTSUNNY   72  61  68 N14G25    30.00R
MICHIGAN CITY* NOT AVBL
RENSSELAER*    NOT AVBL
VALPARAISO     MOSUNNY   71  63  75 N8        29.99R
$$

LMZ740>746-241500-
SOUTHERN LAKE MICHIGAN

STATION/POSITION TIME  SKY/WX   TEMP WIND        PRES    VSBY
                                AIR  DIR/SP/G
                 (UTC)          (F)  (DEG/KT/KT) (MB)    (MI)
HARRISON CRIB    1340            69   20/ 20/ 22   N/A
BURNHAM HARBOR   1400            70                N/A
CALUMET HARBOR   1342            69  360/ 11/ 15 1015.4R
BURNS HARBOR     1340            70   20/ 18/ 21 1015.6S
MICHIGAN CITY    1340            68   10/ 19/ 22   N/A
$$

ABBREVIATIONS USED IN REMARKS
   TC - TEMPERATURE IN CELSIUS
  WCI - WIND CHILL INDEX
   HX - HEAT INDEX
  VSB - VISIBILITY
$$




USA.gov is the U.S. government's official web portal to all federal, state and local government web resources and services.